Погода в Колывани

Погода в Колывани : погода сейчас, прогноз погоды и архив. Всё, что Вы хотите узнать о погоде в Колывани!

Хотите узнать прогноз погоды в Колывани? Тогда Вам сюда: Погода в Колывани

Поиск расширенной информации на нашем сайте:

Другие новости

Новости СМИ2

Главная страница сайта

Новости сайта

03.07.2017

Напоминаем, что на нашем специализированном сайте Метеоцентр.Азия вы можете получить высокодетализированные автоматические прогнозы погоды по пунктам России, СНГ и мира в авиационном формате (включающие направление и скорость ветра, видимость, явления погоды, количество и форму облачности, нижнюю и верхнюю границу облачности).


Погода в Колывани - сегодня

Время (UTC), дата Ветер
(°,м/с) 
Видим.   Явления Облачность Т
(°С)
Тd
(°С)
f(%) Тe
(°С)
Pmin
(гПа)
dP
(гПа)
Po
(мм)
O2
(г/м3)
Тmin Tmax R s Состояние
почвы
18 22.07.17 050 (СВ) 20000 м    4/4 1000 м 
[Sc]
+16.6 +15.5 93 +28  1010.9  -0.4  745  280           
21 22.07.17 010 (С) 4000 м  дымка  4/0 средняя, верхняя 
[Ac trans|Ci fib]
+15.7 +14.9 95 +25  1010.3  -0.7  745  281           
00 23.07.17 тихо ()   2000 м  в посл. час туман  10/0 средняя, верхняя 
[Ac trans|Ci fib]
+14.9 +14.1 95 +22  1010.4  0.1  745  282  +14.8        влажная 
03 23.07.17 050 (СВ) 20000 м    8/0 верхняя 
[Ci fib]
+21.8 +15.7 68 +32  1010  745  275  +14.7         
06 23.07.17 040 (СВ) 20000 м    8/6 1000 м верхняя 
[Cu hum|Ci fib]
+24.5 +14.2 53 +32  1009.2  -0.6  744  272           
09 23.07.17 010 (С) 4000 м  гроза, ливневой дождь  10/8 600 м кучево-дожд., верхняя 
[Cb cap|Ci fib]
+20.6 +17 80 +33  1009.9  0.5  745  275           
12 23.07.17 220 (ЮЗ) 20000 м  {гроза, ливн. осадки}  9/3 600 м верхняя 
[Cu med, cong|Ci sp]
+21.9 +15.5 67 +32  1009.6  -0.3  745  274    +24.7  0.0     
15 23.07.17 тихо ()   20000 м    8/3 1000 м верхняя 
[Sc diur, vesp|Ci fib]
+17.7 +16.3 92 +29  1010.2  0.4  745  278           
18 23.07.17 тихо ()   20000 м    ясно 
+15.6 +14.8 95 +24  1010.1  -0.3  745  281           
21 23.07.17 тихо ()   20000 м    ясно 
+15.5 +14.9 96 +24  1009.5  -0.5  744  281           
00 24.07.17 150 (ЮВ) 0500 м  туман  ясно 
+16.3 +15.7 96 +28  1009.9  0.4  745  280  +14.4        влажная 
03 24.07.17 200 (Ю) 20000 м  {туман}  8/3 600 м верхняя 
[Sc diur, vesp|Ci fib]
+20.8 +18.2 85 +36  1009.3  -0.4  744  274           
06 24.07.17 200 (Ю) 20000 м  {туман}  9/6 600 м верхняя 
[Cu med, cong|Ci fib]
+25.1 +15.4 55 +35  1008  -1  743  271           
09 24.07.17 170 (Ю) 20000 м    10/4 600 м кучево-дожд., средняя, верхняя 
[Cb cap|Ac trans|Cs]
+24.2 +14.9 56 +33  1007.3  -0.7  743  272           
12 24.07.17 170 (Ю) 20000 м    10/4 1000 м средняя, верхняя 
[Sc|Ac As|Cs]
+23.8 +16.1 62 +35  1006.1  -1.2  742  272    +25.6       
15 24.07.17 120 (ЮВ) 20000 м    8/6 1000 м средняя, верхняя 
[Sc diur, vesp|Ac cuf|Cs]
+21.7 +15.9 70 +32  1005.3  -0.9  741  273           
18 24.07.17 100 (В) 20000 м  гроза без осадков  4/3 1000 м средняя, верхняя 
[Sc|Ac trans|Ci ing]
+19.7 +15.6 77 +31  1003.3  -2.1  740  275           
21 24.07.17 110 (В) 20000 м  {гроза, ливн. осадки}  10/10 600 м кучево-дожд. 
[Cb cap]
+18.4 +16.4 88 +31  1001.1  -2.3  738  275           
00 25.07.17 110 (В) 20000 м  {гроза, ливн. осадки}  3/1 1000 м верхняя 
[Sc|Ci fib]
+19.4 +14.6 74 +28  999.3  -1.7  737  274  +17.9      мокрая 
03 25.07.17 220 (ЮЗ) 20000 м    3/3 1000 м 
[Sc]
+21.2 +15.5 70 +31  999.1  -0.1  737  272           
06 25.07.17 210 (ЮЗ) 4{10}  20000 м    10/10 600 м 
[Sc]
+19.8 +14.6 72 +28  1000.4  1.2  738  274           
09 25.07.17 230 (ЮЗ) 20000 м  {ливн. осадки}  10/10 300 м кучево-дожд. 
[Cb cap]
+19.3 +15 76 +29  1001.3  0.9  738  275           
12 25.07.17 230 (ЮЗ) 4000 м  слаб. ливневой дождь  10/10 300 м кучево-дожд. 
[Cb cap]
+18.7 +16.8 89 +31  1001.7  0.4  739  275    +21.9  0.5     
15 25.07.17 230 (ЮЗ) 20000 м  {ливн. осадки}  8/8 600 м 
[Sc]
+18.3 +16.8 91 +31  1002  0.2  739  275           
18 25.07.17 220 (ЮЗ) 20000 м  {ливн. осадки}  3/3 1000 м 
[Sc]
+16.8 +15.7 93 +28  1002.5  0.4  739  277           
Время (UTC), дата Ветер
(°,м/с) 
Видим.   Явления Облачность Т
(°С)
Тd
(°С)
f(%) Тe
(°С)
Pmin
(гПа)
dP
(гПа)
Po
(мм)
O2
(г/м3)
Тmin Tmax R s Состояние
почвы

Для получения пояснительной информации подведите курсор к названию столбца.

ПОГОДА в Колывани - архив

Всё, что Вы хотите узнать о погоде в Колывани - удобно и подробно!

Выберите нужную дату (начиная с 1 января 2015* года) и нажмите кнопку "Найти".
Будут отображены архивные сводки погоды по пункту Колывань, начиная с указанной даты.


Отображать данные в формате CSV (для использования в таблицах Excel)


Внимание! Наш архив погоды предназначен исключительно для личного некоммерческого использования в познавательных целях. Если Вам необходимы официальные справки о состоянии погоды (для производственных, юридических, коммерческих и т.п. целей), обращайтесь в органы Росгидромета.

*Примечание: данная дата относится к архиву по метеостанциям СССР (Россия, СНГ, Балтия).
Архив по метеостанциям Зарубежной Европы и Азии (кроме Китая) хранится 10 дней, по другим регионам земного шара (Китай, Африка, Америка, Австралия, Океания) - 1 день.

Колывань - район местоположения метеостанции


Название, широта, долгота, высота метеостанции:
Колывань 55.3°ш. 82.8°д. 137 м над ур. моря [Российская Федерация]

Дополнительная информация

В oтличие oт бoльшинства пoгoдных сайтoв мы публикуем пoдрoбную метеoинфoрмацию в детальнoм прoфессиoнальнoм фoрмате.

Характеристики температуры и влажнoсти вoздуха измеряются на высoте 2 м в тени вдали oт зданий и деревьев.
Скoрoсть ветра измеряется на высoте 10 м (на урoвне рoста челoвека скoрoсть ветра ниже в 1.5-2 раза). Если метеoстанция нахoдится в гoрoде или в лесу, тo скoрoсть ветра занижена на 2-4 м/с пo сравнению с oткрытым местoм. Скoрoсть ветра над акватoриями крупных рек и oзёр, а также на вершинах хoлмoв на 2-5 м/с выше, чем в oбычных услoвиях.
Атмoсфернoе давление в разных тoчках местнoсти мoжет значительнo oтличаться oт давления на метеoстанции, в зависимoсти oт услoвий рельефа (при пoдъёме на 10 м давление пoнижается примернo на 1 мм рт.ст.).